DB0MOE-6 Weather Reports


Display with metric or nautical units.
time (UTC)temp
F
wind
direction
speed
MPH
gust
MPH
rain 1hr
in
rain 24hr
in
rain mn
in
humidity
%
barometer
mb
20260504002121 53 90 0.0 0.0 0.00 0.02 0.00 74 994.3
20260504002021 54 90 0.0 0.0 0.00 0.02 0.00 74 994.4
20260504001921 54 90 0.0 0.0 0.00 0.02 0.00 74 994.3
20260504001821 54 90 0.0 0.0 0.00 0.02 0.00 74 994.3
20260504001721 55 90 0.0 0.0 0.00 0.02 0.00 72 994.3
20260504001623 55 90 0.0 0.0 0.00 0.02 0.00 72 994.4
20260504001523 55 90 0.0 0.0 0.00 0.02 0.00 72 994.3
20260504001423 55 90 0.0 0.0 0.00 0.02 0.00 71 994.2
20260504001322 55 90 0.0 0.0 0.00 0.02 0.00 71 994.2
20260504001222 55 90 0.0 0.0 0.00 0.02 0.00 71 994.3
20260504001122 56 90 0.0 0.0 0.00 0.02 0.00 71 994.4
20260504001022 56 90 0.0 0.0 0.00 0.02 0.00 71 994.3
20260504000922 56 90 0.0 0.0 0.00 0.02 0.00 69 994.3
20260504000822 56 126 0.0 0.0 0.00 0.02 0.00 70 994.2
20260504000722 56 135 0.0 0.0 0.00 0.02 0.00 70 994.2
20260504000622 56 135 0.0 0.0 0.00 0.02 0.00 70 994.3
20260504000522 56 135 0.0 0.0 0.00 0.02 0.00 70 994.1
20260504000423 56 135 0.0 0.0 0.00 0.02 0.00 70 994.2
20260504000322 56 135 0.0 0.0 0.00 0.02 0.00 70 994.2
20260504000222 56 135 0.0 0.0 0.00 0.02 0.00 70 994.2
20260504000122 56 135 0.0 0.0 0.00 0.02 0.00 70 994.2
20260504000022 56 153 0.0 0.0 0.00 0.02 0.00 71 994.2
20260503235922 56 158 0.0 0.0 0.00 0.02 0.00 70 994.2
20260503235822 56 158 0.0 0.0 0.00 0.02 0.00 71 994.2
20260503235722 56 158 0.0 0.0 0.00 0.02 0.00 71 994.3
20260503235622 56 158 0.0 0.0 0.00 0.02 0.00 70 994.2
20260503235522 56 158 0.0 0.0 0.00 0.02 0.00 70 994.3
20260503235422 56 173 0.0 0.0 0.00 0.02 0.00 70 994.3
20260503235322 55 180 0.0 0.0 0.00 0.02 0.00 70 994.2
20260503235222 55 206 0.0 0.0 0.00 0.02 0.00 71 994.2
20260503235122 55 248 0.0 0.0 0.00 0.02 0.00 72 994.3
20260503235022 55 248 0.0 0.0 0.00 0.02 0.00 72 994.5
20260503234922 55 248 0.0 0.0 0.00 0.02 0.00 72 994.3
20260503234821 55 248 0.0 0.0 0.00 0.02 0.00 71 994.2
20260503234721 55 206 0.0 0.0 0.00 0.02 0.00 71 994.3
20260503234621 55 135 0.0 0.0 0.00 0.02 0.00 72 994.4
20260503234521 55 208 0.0 0.0 0.00 0.02 0.00 72 994.3
20260503234421 55 234 0.0 0.0 0.00 0.02 0.00 73 994.3
20260503234321 55 135 0.0 0.0 0.00 0.02 0.00 72 994.3
20260503234221 55 135 0.0 0.0 0.00 0.02 0.00 72 994.3
20260503234121 55 149 0.0 0.0 0.00 0.02 0.00 72 994.2
20260503234021 55 162 0.0 0.0 0.00 0.02 0.00 72 994.3
20260503233921 55 217 0.0 0.0 0.00 0.02 0.00 73 994.2
20260503233821 55 270 0.0 0.0 0.00 0.02 0.00 73 994.2
20260503233721 56 270 0.0 1.0 0.00 0.02 0.00 72 994.1
20260503233621 56 270 1.0 2.0 0.00 0.02 0.00 73 994.3
20260503233521 56 289 0.0 2.0 0.00 0.02 0.00 71 994.3
20260503233421 56 315 0.0 0.0 0.00 0.02 0.00 70 994.2
20260503233321 56 315 0.0 0.0 0.00 0.02 0.00 71 994.2
20260503233221 56 315 0.0 0.0 0.00 0.02 0.00 70 994.2
20260503233123 56 315 0.0 0.0 0.00 0.02 0.00 70 994.1
20260503233023 56 315 0.0 0.0 0.00 0.02 0.00 71 994.1
20260503232923 56 315 0.0 0.0 0.00 0.02 0.00 71 994.1
20260503232823 56 315 0.0 0.0 0.00 0.02 0.00 71 994.2
20260503232722 56 315 0.0 0.0 0.00 0.02 0.00 72 994.2
20260503232622 56 315 0.0 0.0 0.00 0.02 0.00 71 994.3
20260503232522 56 315 0.0 0.0 0.00 0.02 0.00 71 994.3
20260503232422 56 295 0.0 0.0 0.00 0.02 0.00 70 994.3
20260503232322 56 292 0.0 0.0 0.00 0.02 0.00 71 994.3
20260503232222 56 292 0.0 0.0 0.00 0.02 0.00 72 994.3
20260503232122 56 292 0.0 0.0 0.00 0.02 0.00 71 994.3
20260503232022 56 292 0.0 0.0 0.00 0.02 0.00 71 994.3
20260503231922 56 292 0.0 0.0 0.00 0.02 0.00 72 994.2
20260503231822 56 292 0.0 0.0 0.00 0.02 0.00 72 994.2
20260503231722 56 292 0.0 0.0 0.00 0.02 0.00 72 994.3
20260503231622 56 292 0.0 0.0 0.00 0.02 0.00 72 994.3
20260503231522 56 292 0.0 0.0 0.00 0.02 0.00 72 994.3
20260503231422 57 277 0.0 0.0 0.00 0.02 0.00 71 994.3
20260503231322 57 270 0.0 0.0 0.00 0.02 0.00 71 994.2
20260503231222 57 270 0.0 0.0 0.00 0.02 0.00 71 994.2
20260503231122 57 270 0.0 0.0 0.00 0.02 0.00 71 994.1
20260503231022 58 285 0.0 0.0 0.00 0.02 0.00 70 994.3
20260503230922 58 291 0.0 0.0 0.00 0.02 0.00 69 994.2
20260503230822 58 273 0.0 0.0 0.00 0.02 0.00 67 994.2
20260503230722 58 270 0.0 0.0 0.00 0.02 0.00 67 994.2
20260503230621 58 270 0.0 0.0 0.00 0.02 0.00 67 994.3
20260503230521 58 270 0.0 0.0 0.00 0.02 0.00 66 994.2
20260503230421 59 270 0.0 0.0 0.00 0.02 0.00 66 994.1
20260503230321 59 270 0.0 0.0 0.00 0.02 0.00 67 994.2
20260503230221 59 261 0.0 0.0 0.00 0.02 0.00 67 994.1
20260503230121 59 140 0.0 0.0 0.00 0.02 0.00 63 994.2
20260503230021 59 112 0.0 0.0 0.00 0.02 0.00 60 994.2
20260503225921 59 112 0.0 0.0 0.00 0.02 0.00 60 994.3
20260503225821 59 112 0.0 0.0 0.00 0.02 0.00 60 994.3
20260503225721 59 127 0.0 0.0 0.00 0.02 0.00 63 994.1
20260503225621 59 135 0.0 0.0 0.00 0.02 0.00 68 994.3
20260503225521 59 135 0.0 0.0 0.00 0.02 0.00 67 994.2
20260503225421 59 135 0.0 0.0 0.00 0.02 0.00 66 994.3
20260503225321 59 135 0.0 0.0 0.00 0.02 0.00 65 994.3
20260503225221 59 135 0.0 0.0 0.00 0.02 0.00 65 994.3
20260503225121 59 135 0.0 0.0 0.00 0.02 0.00 66 994.3
20260503225021 59 135 0.0 0.0 0.00 0.02 0.00 66 994.3
20260503224921 59 135 0.0 0.0 0.00 0.02 0.00 66 994.2
20260503224821 59 135 0.0 0.0 0.00 0.02 0.00 64 994.3
20260503224721 59 135 0.0 0.0 0.00 0.02 0.00 64 994.3
20260503224621 59 135 0.0 0.0 0.00 0.02 0.00 64 994.3
20260503224521 59 137 0.0 0.0 0.00 0.02 0.00 65 994.4
20260503224423 59 258 0.0 0.0 0.00 0.02 0.00 65 994.3
20260503224323 59 292 0.0 0.0 0.00 0.02 0.00 66 994.3
20260503224223 60 292 0.0 0.0 0.00 0.02 0.00 66 994.3
20260503224123 60 112 0.0 0.0 0.00 0.02 0.00 65 994.3
20260503224022 60 112 0.0 0.0 0.00 0.02 0.00 63 994.3
20260503223922 60 112 0.0 0.0 0.00 0.02 0.00 64 994.3
20260503223822 60 112 0.0 0.0 0.00 0.02 0.00 64 994.4
20260503223722 60 112 0.0 0.0 0.00 0.02 0.00 63 994.4
20260503223622 60 112 0.0 0.0 0.00 0.02 0.00 63 994.4
20260503223522 60 112 0.0 0.0 0.00 0.02 0.00 63 994.3
20260503223422 60 112 0.0 0.0 0.00 0.02 0.00 63 994.3
20260503223322 60 112 0.0 0.0 0.00 0.02 0.00 64 994.3
20260503223222 59 112 0.0 0.0 0.00 0.02 0.00 64 994.3
20260503223122 59 112 0.0 0.0 0.00 0.02 0.00 64 994.3
20260503223022 59 164 0.0 0.0 0.00 0.02 0.00 64 994.3
20260503222922 59 270 0.0 0.0 0.00 0.02 0.00 64 994.3
20260503222822 59 270 0.0 0.0 0.00 0.02 0.00 64 994.4
20260503222722 59 270 0.0 0.0 0.00 0.02 0.00 65 994.4
20260503222622 59 270 0.0 0.0 0.00 0.02 0.00 65 994.4
20260503222522 59 270 0.0 0.0 0.00 0.02 0.00 65 994.3
20260503222422 59 270 0.0 0.0 0.00 0.02 0.00 66 994.3
20260503222321 59 270 0.0 0.0 0.00 0.02 0.00 65 994.2
20260503222221 59 270 0.0 0.0 0.00 0.02 0.00 65 994.3
20260503222121 59 270 0.0 0.0 0.00 0.02 0.00 66 994.3
20260503222021 59 270 0.0 0.0 0.00 0.02 0.00 66 994.2
20260503221921 59 270 0.0 0.0 0.00 0.02 0.00 66 994.3
20260503221821 59 270 0.0 0.0 0.00 0.02 0.00 66 994.3
20260503221721 59 271 0.0 2.0 0.00 0.02 0.00 67 994.2
20260503221621 60 279 1.0 2.0 0.00 0.02 0.00 66 994.3
20260503221521 61 270 2.0 2.0 0.00 0.02 0.00 66 994.4
20260503221421 61 270 1.0 2.0 0.00 0.02 0.00 66 994.3
20260503221321 61 270 0.0 2.0 0.00 0.02 0.00 63 994.3
20260503221221 61 270 0.0 0.0 0.00 0.02 0.00 62 994.2
20260503221121 61 270 0.0 0.0 0.00 0.02 0.00 60 994.2
20260503221021 62 270 0.0 0.0 0.00 0.02 0.00 59 994.3
20260503220921 62 270 0.0 0.0 0.00 0.02 0.00 59 994.3
20260503220821 63 270 0.0 0.0 0.00 0.02 0.00 59 994.2
20260503220723 63 270 0.0 0.0 0.00 0.02 0.00 58 994.2
20260503220623 64 270 0.0 0.0 0.00 0.02 0.00 57 994.4
20260503220523 64 274 0.0 1.0 0.00 0.02 0.00 57 994.3
20260503220423 64 51 0.0 1.0 0.00 0.02 0.00 50 994.2
20260503220323 64 135 0.0 0.0 0.00 0.02 0.00 50 994.4
20260503220223 64 135 0.0 0.0 0.00 0.02 0.00 50 994.2
20260503220122 64 135 0.0 0.0 0.00 0.02 0.00 49 994.2
20260503220022 64 130 0.0 2.0 0.00 0.02 0.00 49 994.3
20260503215922 64 112 1.0 2.0 0.00 0.02 0.02 49 994.3
20260503215822 64 112 1.0 2.0 0.00 0.02 0.02 49 994.3
20260503215722 64 126 1.0 1.0 0.00 0.02 0.02 49 994.3
20260503215622 64 98 0.0 1.0 0.00 0.02 0.02 50 994.2
20260503215522 64 62 0.0 0.0 0.00 0.02 0.02 52 994.3
20260503215422 64 67 0.0 1.0 0.00 0.02 0.02 54 994.4
20260503215322 64 104 0.0 1.0 0.00 0.02 0.02 49 994.4
20260503215222 64 90 0.0 1.0 0.00 0.02 0.02 51 994.4
20260503215122 65 90 0.0 0.0 0.00 0.02 0.02 53 994.3
20260503215022 65 339 0.0 1.0 0.00 0.02 0.02 53 994.4
20260503214922 65 73 0.0 1.0 0.00 0.02 0.02 51 994.3
20260503214822 65 134 0.0 1.0 0.00 0.02 0.02 48 994.3
20260503214722 65 135 1.0 1.0 0.00 0.02 0.02 48 994.2
20260503214622 65 106 0.0 1.0 0.00 0.02 0.02 48 994.3
20260503214522 65 140 0.0 1.0 0.00 0.02 0.02 47 994.3
20260503214421 64 150 0.0 1.0 0.00 0.02 0.02 47 994.3
20260503214321 64 143 0.0 2.0 0.00 0.02 0.02 47 994.2
20260503214221 64 151 1.0 2.0 0.00 0.02 0.02 48 994.4
20260503214121 64 104 0.0 2.0 0.00 0.02 0.02 50 994.4
20260503214021 64 130 1.0 2.0 0.00 0.02 0.02 50 994.4
20260503213921 64 112 0.0 2.0 0.00 0.02 0.02 51 994.4
20260503213821 64 136 0.0 0.0 0.00 0.02 0.02 53 994.5
20260503213721 63 124 0.0 0.0 0.00 0.02 0.02 51 994.4
20260503213621 63 112 0.0 0.0 0.00 0.02 0.02 50 994.4
20260503213521 63 112 0.0 0.0 0.00 0.02 0.02 50 994.4
20260503213421 62 136 0.0 0.0 0.00 0.02 0.02 52 994.5
20260503213321 61 155 0.0 0.0 0.00 0.02 0.02 54 994.4
20260503213221 61 143 0.0 0.0 0.00 0.02 0.02 56 994.5
20260503213121 61 183 0.0 0.0 0.00 0.02 0.02 58 994.4
20260503213021 62 270 0.0 0.0 0.00 0.02 0.02 59 994.4
20260503212921 62 270 0.0 0.0 0.00 0.02 0.02 60 994.3
20260503212821 62 238 0.0 0.0 0.00 0.02 0.02 57 994.4
20260503212721 61 135 0.0 0.0 0.00 0.02 0.02 55 994.4
20260503212623 61 123 0.0 0.0 0.00 0.02 0.02 56 994.4
20260503212523 61 233 0.0 0.0 0.00 0.02 0.02 60 994.4
20260503212423 61 240 0.0 0.0 0.00 0.02 0.02 61 994.3
20260503212323 61 199 0.0 0.0 0.00 0.02 0.02 59 994.5
20260503212223 61 270 0.0 1.0 0.00 0.02 0.02 59 994.4
20260503212122 61 270 0.0 1.0 0.00 0.02 0.02 60 994.4
20260503212022 61 278 0.0 1.0 0.00 0.02 0.02 60 994.5
20260503211922 61 272 0.0 0.0 0.00 0.02 0.02 59 994.4
20260503211822 61 238 0.0 0.0 0.00 0.02 0.02 59 994.4
20260503211722 61 265 0.0 0.0 0.00 0.02 0.02 60 994.4
20260503211622 61 270 0.0 0.0 0.00 0.02 0.02 62 994.5
20260503211522 61 270 0.0 2.0 0.00 0.02 0.02 62 994.4
20260503211422 61 270 1.0 2.0 0.00 0.02 0.02 62 994.5
20260503211322 62 270 1.0 2.0 0.00 0.02 0.02 60 994.5
20260503211222 62 270 1.0 1.0 0.00 0.02 0.02 58 994.5
20260503211122 62 270 0.0 1.0 0.00 0.02 0.02 58 994.4
20260503211022 62 309 0.0 1.0 0.00 0.02 0.02 57 994.4
20260503210922 62 40 0.0 1.0 0.00 0.02 0.02 56 994.5
20260503210822 62 114 0.0 0.0 0.00 0.02 0.02 55 994.5
20260503210722 62 161 0.0 0.0 0.00 0.02 0.02 56 994.4
20260503210622 62 251 0.0 0.0 0.00 0.02 0.02 58 994.5
20260503210522 62 270 0.0 0.0 0.00 0.02 0.02 58 994.4
20260503210422 62 270 0.0 0.0 0.00 0.02 0.02 56 994.5
20260503210322 62 270 0.0 0.0 0.00 0.02 0.02 58 994.5
20260503210222 62 270 0.0 0.0 0.00 0.02 0.02 57 994.4
20260503210122 62 266 0.0 0.0 0.00 0.02 0.02 57 994.4
20260503210022 62 248 0.0 0.0 0.00 0.02 0.02 57 994.3
20260503205922 62 248 0.0 0.0 0.00 0.02 0.02 58 994.3
20260503205821 62 248 0.0 0.0 0.00 0.02 0.02 57 994.4
20260503205721 62 248 0.0 0.0 0.00 0.02 0.02 57 994.5
20260503205621 62 248 0.0 0.0 0.00 0.02 0.02 56 994.5
20260503205521 62 248 0.0 0.0 0.00 0.02 0.02 56 994.3
20260503205421 62 248 0.0 0.0 0.00 0.02 0.02 56 994.4
20260503205321 62 248 0.0 0.0 0.00 0.02 0.02 56 994.5
20260503205221 62 248 0.0 0.0 0.00 0.02 0.02 56 994.4
20260503205121 62 248 0.0 0.0 0.00 0.02 0.02 55 994.5
20260503205021 62 248 0.0 0.0 0.00 0.02 0.02 56 994.4
20260503204921 63 248 0.0 0.0 0.00 0.02 0.02 55 994.4
20260503204821 63 248 0.0 0.0 0.00 0.02 0.02 54 994.6
20260503204721 63 248 0.0 0.0 0.00 0.02 0.02 54 994.5
20260503204621 63 248 0.0 0.0 0.00 0.02 0.02 53 994.5
20260503204521 63 248 0.0 0.0 0.00 0.02 0.02 53 994.4
20260503204421 63 248 0.0 0.0 0.00 0.02 0.02 53 994.5
20260503204321 63 225 0.0 0.0 0.00 0.02 0.02 54 994.4
20260503204221 63 166 0.0 0.0 0.00 0.02 0.02 52 994.5
20260503204121 63 284 0.0 0.0 0.00 0.02 0.02 52 994.5
20260503204021 63 275 0.0 0.0 0.00 0.02 0.02 52 994.6
20260503203921 63 270 0.0 0.0 0.00 0.02 0.02 54 994.5
20260503203821 63 270 0.0 0.0 0.00 0.02 0.02 52 994.5
20260503203723 63 270 0.0 0.0 0.00 0.02 0.02 53 994.5
20260503203623 64 270 0.0 1.0 0.00 0.02 0.02 53 994.5
20260503203523 64 270 0.0 1.0 0.00 0.02 0.02 52 994.6
20260503203423 64 270 0.0 0.0 0.00 0.02 0.02 50 994.5
20260503203322 64 270 0.0 0.0 0.00 0.02 0.02 49 994.5
20260503203222 64 268 0.0 1.0 0.00 0.02 0.02 50 994.5
20260503203122 63 120 1.0 1.0 0.00 0.02 0.02 49 994.4
20260503203022 63 187 0.0 1.0 0.00 0.02 0.02 50 994.4
20260503202922 63 163 0.0 1.0 0.00 0.02 0.02 50 994.5
20260503202822 63 140 0.0 1.0 0.00 0.02 0.02 50 994.5
20260503202722 63 127 0.0 0.0 0.00 0.02 0.02 50 994.4
20260503202622 63 127 0.0 1.0 0.00 0.02 0.02 51 994.4
20260503202522 63 135 0.0 1.0 0.00 0.02 0.02 51 994.5
20260503202422 63 132 0.0 1.0 0.00 0.02 0.02 51 994.6
20260503202322 63 118 0.0 2.0 0.00 0.02 0.02 51 994.5
20260503202222 63 134 1.0 2.0 0.00 0.02 0.02 52 994.5
20260503202122 63 114 0.0 2.0 0.00 0.02 0.02 52 994.8
20260503202022 63 130 0.0 1.0 0.00 0.02 0.02 51 994.7
20260503201922 63 135 0.0 1.0 0.00 0.02 0.02 51 994.6
20260503201822 63 118 0.0 1.0 0.00 0.02 0.02 51 994.6
20260503201722 63 132 0.0 1.0 0.00 0.02 0.02 51 994.5
20260503201621 63 117 0.0 1.0 0.00 0.02 0.02 51 994.6
20260503201521 63 112 0.0 0.0 0.00 0.02 0.02 52 994.7
20260503201421 63 113 0.0 1.0 0.00 0.02 0.02 51 994.7
20260503201321 63 267 0.0 1.0 0.00 0.02 0.02 50 994.7
20260503201221 63 270 0.0 0.0 0.00 0.02 0.02 50 994.7
20260503201121 63 270 0.0 0.0 0.00 0.02 0.02 50 994.7
20260503201021 64 270 0.0 0.0 0.00 0.02 0.02 50 994.7
20260503200921 64 270 0.0 0.0 0.00 0.02 0.02 51 994.7
20260503200821 64 270 0.0 1.0 0.00 0.02 0.02 50 994.8
20260503200721 64 270 0.0 1.0 0.00 0.02 0.02 49 994.7
20260503200621 64 258 0.0 2.0 0.00 0.02 0.02 49 994.8
20260503200521 64 133 0.0 2.0 0.00 0.02 0.02 48 994.7
20260503200421 64 112 0.0 1.0 0.00 0.02 0.02 48 994.7
20260503200321 64 125 0.0 2.0 0.00 0.02 0.02 47 994.7
20260503200221 64 138 1.0 3.0 0.00 0.02 0.02 46 994.7
20260503200121 64 135 2.0 3.0 0.00 0.02 0.02 46 994.7
20260503200023 64 135 3.0 5.0 0.00 0.02 0.02 46 994.7
20260503195923 64 143 3.0 5.0 0.00 0.02 0.02 46 994.5
20260503195823 64 145 2.0 5.0 0.00 0.02 0.02 47 994.6
20260503195723 64 135 2.0 3.0 0.00 0.02 0.02 47 994.5
20260503195623 64 132 2.0 3.0 0.00 0.02 0.02 47 994.8
20260503195523 64 112 1.0 2.0 0.00 0.02 0.02 47 994.6
20260503195422 64 114 0.0 2.0 0.00 0.02 0.02 47 994.7
20260503195322 64 134 2.0 2.0 0.00 0.02 0.02 47 994.6
20260503195222 64 155 2.0 3.0 0.00 0.02 0.02 47 994.7
20260503195122 64 158 2.0 5.0 0.00 0.02 0.02 47 994.6
20260503195022 64 156 2.0 6.0 0.00 0.02 0.02 47 994.6
20260503194922 64 115 3.0 6.0 0.00 0.02 0.02 47 994.7
20260503194822 64 151 3.0 7.0 0.00 0.02 0.02 47 994.7
20260503194722 64 148 3.0 7.0 0.00 0.02 0.02 47 994.5
20260503194622 64 149 3.0 6.0 0.00 0.02 0.02 48 994.6
20260503194522 64 172 3.0 6.0 0.00 0.02 0.02 47 994.5
20260503194422 64 142 3.0 6.0 0.00 0.02 0.02 48 994.5
20260503194322 64 145 3.0 5.0 0.00 0.02 0.02 48 994.6
20260503194222 64 158 3.0 6.0 0.00 0.02 0.02 47 994.7
20260503194122 64 145 3.0 6.0 0.00 0.02 0.02 47 994.7
20260503194022 64 154 3.0 6.0 0.00 0.02 0.02 48 994.5
20260503193922 64 147 3.0 5.0 0.00 0.02 0.02 48 994.6
20260503193822 64 163 3.0 5.0 0.00 0.02 0.02 47 994.6
20260503193722 64 136 3.0 5.0 0.00 0.02 0.02 47 994.5
20260503193622 64 141 3.0 5.0 0.00 0.02 0.02 47 994.5
20260503193522 64 123 3.0 6.0 0.00 0.02 0.02 47 994.6
20260503193422 64 150 3.0 6.0 0.00 0.02 0.02 47 994.5
20260503193322 64 145 2.0 5.0 0.00 0.02 0.02 48 994.6
20260503193222 64 135 2.0 5.0 0.00 0.02 0.02 48 994.8
20260503193122 64 135 2.0 5.0 0.00 0.02 0.02 48 994.7
20260503193021 64 135 2.0 3.0 0.00 0.02 0.02 48 994.8
20260503192921 64 150 2.0 5.0 0.00 0.02 0.02 48 994.7
20260503192821 64 143 3.0 5.0 0.00 0.02 0.02 47 994.8
20260503192721 64 158 2.0 3.0 0.00 0.02 0.02 48 994.7
20260503192621 64 175 2.0 5.0 0.00 0.02 0.02 47 994.6
20260503192521 64 167 2.0 5.0 0.00 0.02 0.02 47 994.7
20260503192421 64 158 2.0 3.0 0.00 0.02 0.02 47 994.7
20260503192321 64 158 2.0 3.0 0.00 0.02 0.02 47 994.7
20260503192221 64 149 1.0 2.0 0.00 0.02 0.02 48 994.7
20260503192121 64 136 2.0 2.0 0.00 0.02 0.02 48 994.8
20260503192021 64 156 2.0 2.0 0.00 0.02 0.02 49 994.8
20260503191921 64 147 1.0 2.0 0.00 0.02 0.02 49 994.7
20260503191821 64 135 1.0 2.0 0.00 0.02 0.02 49 994.7
20260503191721 64 121 1.0 1.0 0.00 0.02 0.02 49 994.8
20260503191621 64 134 0.0 1.0 0.00 0.02 0.02 49 995.0
20260503191521 64 135 0.0 1.0 0.00 0.02 0.02 49 995.0
20260503191421 64 128 0.0 1.0 0.00 0.02 0.02 49 995.0
20260503191323 64 128 1.0 2.0 0.00 0.02 0.02 49 994.9
20260503191223 64 137 0.0 2.0 0.00 0.02 0.02 49 995.0
20260503191123 64 121 0.0 1.0 0.00 0.02 0.02 48 994.9
20260503191023 64 125 1.0 1.0 0.00 0.02 0.02 48 995.0
20260503190922 64 97 0.0 1.0 0.00 0.02 0.02 48 995.1
20260503190822 64 133 0.0 1.0 0.00 0.02 0.02 49 995.0
20260503190722 64 123 0.0 1.0 0.00 0.02 0.02 49 995.0
20260503190622 64 112 0.0 1.0 0.00 0.02 0.02 49 995.0
20260503190522 64 124 0.0 1.0 0.00 0.02 0.02 49 995.0
20260503190422 64 120 0.0 1.0 0.00 0.02 0.02 49 995.0
20260503190322 64 130 0.0 1.0 0.00 0.02 0.02 49 995.0
20260503190222 64 112 0.0 1.0 0.00 0.02 0.02 49 995.0
20260503190122 64 112 0.0 1.0 0.00 0.02 0.02 48 994.9
20260503190022 64 120 0.0 0.0 0.00 0.02 0.02 48 994.9
20260503185922 64 135 0.0 2.0 0.00 0.02 0.02 48 995.0
20260503185822 64 121 0.0 2.0 0.00 0.02 0.02 48 995.0
20260503185722 64 110 0.0 1.0 0.00 0.02 0.02 48 995.0
20260503185622 64 90 0.0 1.0 0.00 0.02 0.02 48 994.9
20260503185522 64 90 0.0 0.0 0.00 0.02 0.02 48 994.8
20260503185422 65 90 0.0 0.0 0.00 0.02 0.02 47 995.0
20260503185322 65 90 0.0 0.0 0.00 0.02 0.02 48 994.9
20260503185222 65 90 0.0 0.0 0.00 0.02 0.02 47 994.9
20260503185122 65 90 0.0 1.0 0.00 0.02 0.02 47 995.0
20260503185022 65 90 0.0 1.0 0.00 0.02 0.02 47 995.0
20260503184922 65 90 0.0 0.0 0.00 0.02 0.02 47 995.0
20260503184821 65 90 0.0 0.0 0.00 0.02 0.02 47 995.0
20260503184721 65 90 0.0 0.0 0.00 0.02 0.02 46 995.1
20260503184621 65 90 0.0 0.0 0.00 0.02 0.02 47 995.0
20260503184521 65 90 0.0 0.0 0.00 0.02 0.02 47 994.9
20260503184421 65 90 0.0 0.0 0.00 0.02 0.02 47 994.8
20260503184321 65 90 0.0 0.0 0.00 0.02 0.02 46 994.9
20260503184221 65 90 0.0 0.0 0.00 0.02 0.02 46 994.8
20260503184121 65 90 0.0 0.0 0.00 0.02 0.02 46 994.9
20260503184021 65 90 0.0 0.0 0.00 0.02 0.02 46 994.9
20260503183921 65 90 0.0 0.0 0.00 0.02 0.02 46 995.0
20260503183821 65 90 0.0 0.0 0.00 0.02 0.02 46 994.9
20260503183721 65 90 0.0 1.0 0.00 0.02 0.02 46 994.9
20260503183621 65 86 0.0 1.0 0.00 0.02 0.02 46 994.9
20260503183521 65 2 0.0 1.0 0.00 0.02 0.02 46 995.0
20260503183421 65 323 0.0 2.0 0.00 0.02 0.02 46 994.8
20260503183321 65 270 0.0 2.0 0.00 0.02 0.02 46 995.0
20260503183221 65 270 0.0 1.0 0.00 0.02 0.02 46 995.0
20260503183123 65 270 0.0 1.0 0.00 0.02 0.02 46 995.0
20260503183023 65 270 1.0 3.0 0.00 0.02 0.02 45 994.9
20260503182923 65 306 1.0 5.0 0.00 0.02 0.02 46 995.0
20260503182822 65 314 1.0 5.0 0.00 0.02 0.02 46 994.9
20260503182722 65 293 0.0 5.0 0.00 0.02 0.02 46 995.0
20260503182622 65 279 0.0 1.0 0.00 0.02 0.02 46 995.0
20260503182522 65 282 0.0 1.0 0.00 0.02 0.02 45 995.0
20260503182422 65 266 1.0 2.0 0.00 0.02 0.02 45 995.0
20260503182322 65 248 1.0 2.0 0.00 0.02 0.02 45 994.7
20260503182222 65 248 1.0 2.0 0.00 0.02 0.02 45 994.8
20260503182122 65 282 0.0 1.0 0.00 0.02 0.02 45 994.9
20260503182022 66 308 0.0 1.0 0.00 0.02 0.02 45 994.9
20260503181922 66 292 0.0 1.0 0.00 0.02 0.02 45 994.9
20260503181822 66 306 0.0 1.0 0.00 0.02 0.02 44 994.9
20260503181722 66 354 0.0 1.0 0.00 0.02 0.02 45 994.8
20260503181622 66 340 0.0 1.0 0.00 0.02 0.02 45 994.9
20260503181522 66 292 1.0 1.0 0.00 0.02 0.02 45 994.9
20260503181422 66 273 1.0 6.0 0.00 0.02 0.02 44 994.9
20260503181322 66 285 1.0 6.0 0.00 0.02 0.02 44 994.9
20260503181222 66 264 1.0 2.0 0.00 0.02 0.02 45 994.8
20260503181122 66 284 1.0 2.0 0.00 0.02 0.02 44 994.7
20260503181022 66 299 1.0 2.0 0.00 0.02 0.02 44 994.8
20260503180922 66 275 1.0 1.0 0.00 0.02 0.02 44 994.8
20260503180822 66 306 1.0 1.0 0.00 0.02 0.02 44 994.7
20260503180722 66 315 1.0 2.0 0.00 0.02 0.02 44 994.8
20260503180622 66 274 1.0 2.0 0.00 0.02 0.02 44 994.9
20260503180522 66 356 0.0 1.0 0.00 0.02 0.02 43 994.9
20260503180422 66 98 0.0 2.0 0.00 0.02 0.02 43 994.8
20260503180322 66 301 1.0 2.0 0.00 0.02 0.02 43 994.7
20260503180222 66 314 1.0 2.0 0.00 0.02 0.02 43 994.8
20260503180121 66 294 1.0 2.0 0.00 0.02 0.02 43 994.9
20260503180021 67 84 1.0 2.0 0.00 0.02 0.02 43 994.7
20260503175921 67 44 1.0 2.0 0.00 0.02 0.02 43 994.7
20260503175821 67 297 0.0 2.0 0.00 0.02 0.02 44 994.7
20260503175722 67 320 0.0 1.0 0.00 0.02 0.02 44 994.7
20260503175621 67 297 0.0 2.0 0.00 0.02 0.02 44 994.8
20260503175521 67 258 0.0 2.0 0.00 0.02 0.02 43 994.7
20260503175421 67 201 0.0 1.0 0.00 0.02 0.02 44 994.6
20260503175321 67 223 0.0 2.0 0.00 0.02 0.02 43 994.7
20260503175221 67 270 1.0 3.0 0.00 0.02 0.02 43 994.8
20260503175121 67 270 0.0 1.0 0.00 0.02 0.02 43 994.7
20260503175021 67 282 0.0 2.0 0.00 0.02 0.02 43 994.7
20260503174921 67 292 1.0 2.0 0.00 0.02 0.02 43 994.8
20260503174821 67 227 1.0 2.0 0.00 0.02 0.02 42 994.7
20260503174721 67 144 1.0 2.0 0.00 0.02 0.02 43 994.7
20260503174621 67 339 0.0 1.0 0.00 0.02 0.02 43 994.7
20260503174521 67 292 0.0 1.0 0.00 0.02 0.02 42 994.8
20260503174421 67 299 0.0 1.0 0.00 0.02 0.02 42 994.7
20260503174321 67 28 1.0 2.0 0.00 0.02 0.02 42 994.8
20260503174221 67 297 1.0 2.0 0.00 0.02 0.02 42 994.7
20260503174121 67 312 1.0 2.0 0.00 0.02 0.02 42 994.6
20260503174023 67 338 0.0 2.0 0.00 0.02 0.02 43 994.7
20260503173923 67 359 0.0 1.0 0.00 0.02 0.02 42 994.6
20260503173823 67 291 0.0 2.0 0.00 0.02 0.02 42 994.6
20260503173723 67 331 1.0 2.0 0.00 0.02 0.02 43 994.6
20260503173623 67 357 0.0 2.0 0.00 0.02 0.02 43 994.7
20260503173522 67 101 0.0 1.0 0.00 0.02 0.02 42 994.5
20260503173422 67 62 0.0 1.0 0.00 0.02 0.02 42 994.6
20260503173322 67 314 1.0 2.0 0.00 0.02 0.02 42 994.6
20260503173222 67 292 1.0 3.0 0.00 0.02 0.02 43 994.5
20260503173122 67 271 1.0 3.0 0.00 0.02 0.02 42 994.6
20260503173022 67 242 1.0 3.0 0.00 0.02 0.02 42 994.6
20260503172922 68 229 0.0 3.0 0.00 0.02 0.02 43 994.5
20260503172822 68 302 1.0 2.0 0.00 0.02 0.02 43 994.5
20260503172722 68 338 1.0 2.0 0.00 0.02 0.02 43 994.5
20260503172622 68 338 1.0 2.0 0.00 0.02 0.02 43 994.4
20260503172522 68 353 0.0 2.0 0.00 0.02 0.02 43 994.4
20260503172422 68 290 1.0 2.0 0.00 0.02 0.02 43 994.5
20260503172322 68 285 0.0 2.0 0.00 0.02 0.02 43 994.5
20260503172222 68 313 0.0 1.0 0.00 0.02 0.02 43 994.6
20260503172122 68 9 1.0 2.0 0.00 0.02 0.02 43 994.4
20260503172022 68 290 1.0 2.0 0.00 0.02 0.02 43 994.5
20260503171922 68 321 1.0 2.0 0.00 0.02 0.02 42 994.5
20260503171822 68 327 1.0 2.0 0.00 0.02 0.02 42 994.4
20260503171722 68 35 1.0 1.0 0.00 0.02 0.02 43 994.4
20260503171622 68 270 0.0 1.0 0.00 0.02 0.02 43 994.4
20260503171522 68 282 0.0 1.0 0.00 0.02 0.02 43 994.4
20260503171422 68 299 0.0 2.0 0.00 0.02 0.02 42 994.5
20260503171321 68 330 1.0 3.0 0.00 0.02 0.02 42 994.5
20260503171222 68 159 1.0 3.0 0.00 0.02 0.02 42 994.4
20260503171121 68 292 0.0 2.0 0.00 0.02 0.02 43 994.4
20260503171021 68 281 0.0 1.0 0.00 0.02 0.02 43 994.4
20260503170921 68 332 0.0 1.0 0.00 0.02 0.02 43 994.3
20260503170821 68 293 0.0 1.0 0.00 0.02 0.02 44 994.4
20260503170721 68 292 0.0 2.0 0.00 0.02 0.02 43 994.4
20260503170621 68 292 0.0 2.0 0.00 0.02 0.02 42 994.4
20260503170521 68 274 1.0 3.0 0.00 0.02 0.02 42 994.4
20260503170421 69 276 1.0 3.0 0.00 0.02 0.02 43 994.5
20260503170321 69 292 0.0 1.0 0.00 0.02 0.02 43 994.4
20260503170221 69 280 0.0 1.0 0.00 0.02 0.02 43 994.4
20260503170121 69 255 0.0 1.0 0.00 0.02 0.02 44 994.4
20260503160123 71 248 2.0 8.0 0.00 0.02 0.02 39 994.0
20260503150923 75 285 7.0 13.0 0.00 0.02 0.02 36 993.1
20260503150823 75 292 5.0 14.0 0.00 0.02 0.02 39 993.0
20260503150722 75 135 2.0 6.0 0.00 0.02 0.02 42 992.9
20260503150622 75 270 1.0 5.0 0.00 0.02 0.02 41 992.9
20260503150522 76 234 1.0 3.0 0.00 0.02 0.02 40 992.9
20260503150422 76 204 1.0 3.0 0.00 0.02 0.02 40 992.9
20260503150322 76 248 1.0 3.0 0.00 0.02 0.02 40 992.7
20260503150222 76 248 1.0 3.0 0.00 0.02 0.02 40 992.9
20260503150122 76 248 1.0 3.0 0.00 0.02 0.02 41 993.0
20260503140222 76 270 2.0 5.0 0.00 0.02 0.02 39 993.0
20260503140122 76 270 2.0 5.0 0.00 0.02 0.02 39 993.1
20260503131321 77 310 1.0 3.0 0.00 0.02 0.02 40 993.6
20260503131221 77 313 0.0 3.0 0.00 0.02 0.02 39 993.7
20260503131121 77 0 0.0 1.0 0.00 0.02 0.02 39 993.7
20260503131021 77 338 1.0 2.0 0.00 0.02 0.02 40 993.7
20260503130921 77 318 0.0 2.0 0.00 0.02 0.02 40 993.5
20260503130821 78 291 1.0 6.0 0.00 0.02 0.02 40 993.7
20260503130721 78 265 2.0 6.0 0.00 0.02 0.02 39 993.7
20260503130621 79 119 1.0 3.0 0.00 0.02 0.02 38 993.7
20260503130521 79 57 0.0 3.0 0.00 0.02 0.02 38 993.6
20260503130421 79 49 1.0 2.0 0.00 0.02 0.02 39 993.7
20260503130321 79 112 1.0 2.0 0.00 0.02 0.02 39 993.7
20260503130221 79 112 1.0 2.0 0.00 0.02 0.02 39 993.7
20260503130121 78 261 0.0 2.0 0.00 0.02 0.02 41 993.6
20260503120222 76 98 0.0 2.0 0.00 0.02 0.02 40 994.3
20260503120122 76 154 1.0 3.0 0.00 0.02 0.02 40 994.3
20260503110821 73 165 0.0 1.0 0.00 0.02 0.02 44 994.7
20260503110721 73 3 0.0 2.0 0.00 0.02 0.02 44 994.6
20260503110621 73 125 0.0 2.0 0.00 0.02 0.02 44 994.7
20260503110521 73 104 0.0 1.0 0.00 0.02 0.02 45 994.7
20260503110421 73 359 0.0 2.0 0.00 0.02 0.02 45 994.7
20260503110321 73 305 0.0 2.0 0.00 0.02 0.02 45 994.7
20260503110221 73 315 0.0 1.0 0.00 0.02 0.02 45 994.6
20260503110121 73 189 1.0 3.0 0.00 0.02 0.02 44 994.7
20260503100222 73 103 1.0 3.0 0.00 0.02 0.02 44 995.0
20260503100122 73 124 1.0 3.0 0.00 0.02 0.02 45 995.2
20260503090422 71 111 0.0 3.0 0.00 0.02 0.02 48 995.6
20260503090322 71 145 0.0 1.0 0.00 0.02 0.02 48 995.6
20260503090221 71 101 0.0 1.0 0.00 0.02 0.02 49 995.5
20260503090121 71 108 1.0 2.0 0.00 0.02 0.02 48 995.4
20260503081621 66 154 2.0 5.0 0.00 0.02 0.02 60 995.8
20260503081521 66 158 2.0 3.0 0.00 0.02 0.02 61 995.8
20260503081421 66 158 2.0 5.0 0.00 0.02 0.02 62 995.9
20260503081321 66 144 3.0 5.0 0.00 0.02 0.02 61 995.8
20260503081221 66 185 3.0 6.0 0.00 0.02 0.02 61 995.8
20260503081121 66 201 3.0 6.0 0.00 0.02 0.02 61 995.6
20260503081021 66 180 3.0 5.0 0.00 0.02 0.02 62 995.7
20260503080921 66 152 3.0 5.0 0.00 0.02 0.02 61 995.6
20260503080821 65 161 3.0 7.0 0.00 0.02 0.02 63 995.7
20260503080721 66 129 5.0 7.0 0.00 0.02 0.02 63 995.8
20260503080621 66 137 3.0 5.0 0.00 0.02 0.02 63 995.6
20260503080523 65 141 3.0 7.0 0.00 0.02 0.02 63 995.6
20260503080423 65 115 3.0 7.0 0.00 0.02 0.02 63 995.7
20260503080323 65 112 2.0 6.0 0.00 0.02 0.02 63 995.7
20260503080223 65 134 3.0 8.0 0.00 0.02 0.02 63 995.7
20260503080122 65 158 5.0 8.0 0.00 0.02 0.02 63 995.7
20260503072921 61 158 3.0 5.0 0.00 0.02 0.02 70 995.7
20260503072821 61 158 3.0 5.0 0.00 0.02 0.02 70 995.8
20260503072721 60 153 2.0 5.0 0.00 0.02 0.02 72 995.9
20260503072621 60 135 1.0 2.0 0.00 0.02 0.02 73 995.7
20260503072521 60 131 0.0 2.0 0.00 0.02 0.02 74 995.7
20260503072423 60 106 0.0 0.0 0.00 0.02 0.02 74 995.7
20260503072323 60 1 0.0 0.0 0.00 0.02 0.02 76 995.7
20260503072223 60 73 0.0 0.0 0.00 0.02 0.02 75 995.7
20260503072123 60 75 0.0 0.0 0.00 0.02 0.02 76 995.8
20260503072023 60 71 0.0 0.0 0.00 0.02 0.02 76 995.7
20260503071923 60 95 0.0 1.0 0.00 0.02 0.02 74 995.8
20260503071822 60 131 1.0 2.0 0.00 0.02 0.02 74 995.8
20260503071722 60 135 1.0 2.0 0.00 0.02 0.02 74 995.9
20260503071622 59 152 2.0 5.0 0.00 0.02 0.02 73 995.8
20260503071522 59 144 3.0 6.0 0.00 0.02 0.02 73 995.8
20260503071422 59 158 3.0 6.0 0.01 0.02 0.02 73 995.8
20260503071322 59 177 5.0 7.0 0.01 0.02 0.02 74 995.8
20260503071222 59 142 5.0 7.0 0.01 0.02 0.02 74 995.6
20260503071122 59 127 3.0 7.0 0.01 0.02 0.02 73 995.6
20260503071022 60 158 3.0 7.0 0.01 0.02 0.02 75 995.6
20260503070922 60 158 1.0 5.0 0.01 0.02 0.02 74 995.8
20260503070822 60 141 1.0 3.0 0.01 0.02 0.02 72 995.7
20260503070722 60 147 2.0 2.0 0.01 0.02 0.02 70 995.7
20260503070622 59 106 2.0 5.0 0.01 0.02 0.02 69 995.5
20260503070522 59 131 3.0 5.0 0.01 0.02 0.02 71 995.5
20260503070422 59 138 3.0 5.0 0.01 0.02 0.02 71 995.5
20260503070322 59 167 2.0 3.0 0.01 0.02 0.02 72 995.6
20260503070222 59 179 2.0 3.0 0.01 0.02 0.02 71 995.5
20260503070122 59 160 3.0 3.0 0.01 0.02 0.02 72 995.7
20260503060321 59 258 0.0 1.0 0.00 0.01 0.01 77 995.3
20260503060221 59 207 0.0 0.0 0.00 0.01 0.01 76 995.3
20260503060121 59 158 0.0 2.0 0.00 0.01 0.01 75 995.3
20260503055121 59 170 2.0 2.0 0.00 0.01 0.01 74 995.2
20260503055021 59 146 2.0 3.0 0.01 0.01 0.01 74 995.2
20260503054921 59 148 2.0 3.0 0.01 0.01 0.01 74 995.2
20260503054821 59 151 1.0 3.0 0.01 0.01 0.01 74 995.3
20260503054720 58 159 1.0 3.0 0.01 0.01 0.01 75 995.3
20260503054622 58 170 1.0 3.0 0.01 0.01 0.01 75 995.3
20260503054522 58 157 1.0 2.0 0.01 0.01 0.01 76 995.2
20260503054422 57 136 2.0 2.0 0.01 0.01 0.01 77 995.2
20260503054322 57 135 2.0 3.0 0.01 0.01 0.01 78 995.2
20260503054222 57 135 2.0 3.0 0.01 0.01 0.01 78 995.2
20260503054122 57 145 1.0 2.0 0.01 0.01 0.01 80 995.3
20260503054022 57 141 0.0 1.0 0.01 0.01 0.01 80 995.3
20260503053922 57 158 1.0 1.0 0.01 0.01 0.01 80 995.1
20260503053822 57 144 0.0 1.0 0.01 0.01 0.01 80 995.1
20260503053722 57 356 0.0 0.0 0.01 0.01 0.01 81 995.2
20260503053622 57 323 0.0 0.0 0.01 0.01 0.01 81 995.1
20260503053522 57 292 0.0 0.0 0.01 0.01 0.01 81 995.1
20260503053422 57 292 0.0 0.0 0.01 0.01 0.01 80 995.2
20260503053322 57 278 0.0 0.0 0.01 0.01 0.01 80 995.2
20260503053222 56 284 0.0 0.0 0.01 0.01 0.01 79 995.2
20260503053122 56 285 0.0 0.0 0.01 0.01 0.01 79 995.2
20260503053022 56 338 0.0 0.0 0.01 0.01 0.01 80 995.2
20260503052922 56 338 0.0 0.0 0.01 0.01 0.01 80 995.1
20260503052822 56 330 0.0 0.0 0.01 0.01 0.01 81 995.2
20260503052721 56 315 0.0 0.0 0.01 0.01 0.01 80 995.2
20260503052621 56 315 0.0 0.0 0.01 0.01 0.01 80 995.2
20260503052521 56 315 0.0 0.0 0.01 0.01 0.01 81 995.2
20260503052421 56 315 0.0 0.0 0.01 0.01 0.01 81 995.4
20260503052321 56 309 0.0 0.0 0.01 0.01 0.01 81 995.2
20260503052221 56 292 0.0 1.0 0.01 0.01 0.01 80 995.3
20260503052121 56 319 1.0 1.0 0.01 0.01 0.01 80 995.2
20260503052021 56 75 0.0 1.0 0.01 0.01 0.01 82 995.1
20260503051921 56 78 0.0 1.0 0.01 0.01 0.01 82 995.2
20260503051821 56 22 0.0 0.0 0.01 0.01 0.01 81 995.2
20260503051721 56 0 0.0 0.0 0.01 0.01 0.01 81 995.0
20260503051621 57 352 0.0 0.0 0.01 0.01 0.01 81 995.0
20260503051521 57 325 0.0 0.0 0.01 0.01 0.01 80 994.9
20260503051421 57 292 0.0 0.0 0.01 0.01 0.01 79 994.8
20260503051321 57 168 0.0 0.0 0.01 0.01 0.01 78 994.9
20260503051221 57 113 0.0 0.0 0.01 0.01 0.01 78 994.8
20260503051121 57 112 0.0 0.0 0.01 0.01 0.01 78 994.8
20260503051021 57 121 0.0 2.0 0.01 0.01 0.01 78 994.7
20260503050921 57 135 1.0 3.0 0.01 0.01 0.01 77 994.7
20260503050821 56 135 0.0 3.0 0.01 0.01 0.01 77 994.8
20260503050721 56 142 0.0 0.0 0.01 0.01 0.01 78 994.8
20260503050621 56 198 0.0 2.0 0.01 0.01 0.01 78 994.9
20260503050521 57 270 1.0 2.0 0.01 0.01 0.01 77 994.8
20260503050421 57 270 1.0 2.0 0.01 0.01 0.01 77 994.7
20260503050321 58 277 1.0 3.0 0.01 0.01 0.01 77 994.8
20260503050220 58 280 1.0 3.0 0.01 0.01 0.01 77 994.8
20260503050122 59 274 1.0 2.0 0.01 0.01 0.01 76 994.6
20260503050022 59 291 0.0 0.0 0.01 0.01 0.01 75 994.5
20260503045922 59 278 0.0 0.0 0.01 0.01 0.01 73 994.4
20260503045822 59 187 0.0 0.0 0.01 0.01 0.01 71 994.4
20260503045722 59 124 1.0 3.0 0.01 0.01 0.01 70 994.4
20260503045622 59 93 1.0 3.0 0.01 0.01 0.01 71 994.6
20260503045522 58 134 1.0 3.0 0.01 0.01 0.01 71 994.5
20260503045422 56 118 2.0 5.0 0.01 0.01 0.01 73 994.4
20260503045322 55 133 3.0 7.0 0.01 0.01 0.01 76 994.6
20260503045222 55 158 1.0 5.0 0.01 0.01 0.01 81 994.6
20260503045122 56 181 1.0 5.0 0.01 0.01 0.01 83 994.5
20260503045022 56 332 2.0 5.0 0.00 0.00 0.00 81 994.5
20260503044922 56 275 3.0 5.0 0.00 0.00 0.00 80 994.7
20260503044822 57 338 2.0 3.0 0.00 0.00 0.00 78 994.7
20260503044722 57 334 1.0 3.0 0.00 0.00 0.00 78 994.8
20260503044622 57 331 0.0 1.0 0.00 0.00 0.00 76 994.8
20260503044522 57 127 0.0 1.0 0.00 0.00 0.00 75 994.9
20260503044422 57 135 1.0 1.0 0.00 0.00 0.00 75 995.0
20260503044322 57 315 0.0 1.0 0.00 0.00 0.00 76 994.9
20260503044222 57 315 0.0 1.0 0.00 0.00 0.00 75 995.0
20260503044122 57 303 0.0 1.0 0.00 0.00 0.00 74 995.2
20260503044022 57 268 0.0 1.0 0.00 0.00 0.00 73 995.2
20260503043922 57 254 0.0 1.0 0.00 0.00 0.00 74 995.2
20260503043821 57 270 1.0 1.0 0.00 0.00 0.00 74 995.2
20260503043721 57 270 1.0 3.0 0.00 0.00 0.00 73 995.2
20260503043621 58 269 2.0 3.0 0.00 0.00 0.00 73 995.2
20260503043521 58 261 1.0 3.0 0.00 0.00 0.00 73 995.1
20260503043421 59 270 1.0 2.0 0.00 0.00 0.00 72 995.2
20260503043321 59 285 1.0 3.0 0.00 0.00 0.00 72 995.2
20260503043221 59 264 0.0 1.0 0.00 0.00 0.00 72 995.0
20260503043121 58 159 0.0 1.0 0.00 0.00 0.00 71 995.1
20260503043021 58 144 1.0 1.0 0.00 0.00 0.00 72 995.0
20260503042921 58 124 0.0 1.0 0.00 0.00 0.00 71 994.9
20260503042821 58 161 0.0 0.0 0.00 0.00 0.00 71 995.0
20260503042721 58 195 0.0 0.0 0.00 0.00 0.00 72 994.9
20260503042621 58 225 0.0 0.0 0.00 0.00 0.00 73 995.0
20260503042521 57 245 0.0 0.0 0.00 0.00 0.00 72 995.2
20260503042421 57 251 0.0 1.0 0.00 0.00 0.00 71 995.0
20260503042321 58 270 0.0 1.0 0.00 0.00 0.00 72 994.9
20260503042221 58 270 0.0 1.0 0.00 0.00 0.00 71 994.8
20260503042121 58 290 0.0 1.0 0.00 0.00 0.00 71 994.8
20260503042021 58 290 0.0 1.0 0.00 0.00 0.00 69 994.8
20260503041921 58 294 1.0 1.0 0.00 0.00 0.00 69 994.6
20260503041821 59 338 1.0 2.0 0.00 0.00 0.00 69 994.7
20260503041721 59 359 1.0 2.0 0.00 0.00 0.00 68 994.6
20260503041621 59 11 1.0 2.0 0.00 0.00 0.00 68 994.7
20260503041522 59 338 0.0 1.0 0.00 0.00 0.00 66 994.7
20260503041422 59 184 0.0 1.0 0.00 0.00 0.00 65 994.7
20260503041322 59 158 0.0 1.0 0.00 0.00 0.00 64 994.7
20260503041222 59 142 0.0 1.0 0.00 0.00 0.00 66 994.7
20260503041122 59 135 1.0 1.0 0.00 0.00 0.00 66 994.6
20260503041022 58 152 0.0 1.0 0.00 0.00 0.00 66 994.8
20260503040922 58 139 1.0 1.0 0.00 0.00 0.00 66 994.8
20260503040822 58 135 0.0 1.0 0.00 0.00 0.00 68 994.8
20260503040722 58 135 0.0 0.0 0.00 0.00 0.00 69 994.8
20260503040622 58 135 0.0 0.0 0.00 0.00 0.00 69 994.8
20260503040522 58 155 0.0 0.0 0.00 0.00 0.00 69 994.9
20260503040422 58 158 0.0 1.0 0.00 0.00 0.00 69 994.9
20260503040322 58 146 0.0 1.0 0.00 0.00 0.00 69 995.0
20260503040222 57 120 0.0 0.0 0.00 0.00 0.00 70 995.1
20260503040122 57 132 0.0 0.0 0.00 0.00 0.00 71 995.0
20260503040022 57 135 0.0 0.0 0.00 0.00 0.00 71 994.9
20260503035922 57 135 0.0 0.0 0.00 0.00 0.00 71 994.9
20260503035822 56 135 0.0 0.0 0.00 0.00 0.00 72 994.8
20260503035722 56 135 0.0 0.0 0.00 0.00 0.00 73 995.0
20260503035622 56 119 0.0 0.0 0.00 0.00 0.00 74 994.9
20260503035522 56 292 0.0 0.0 0.00 0.00 0.00 75 994.8
20260503035422 56 292 0.0 0.0 0.00 0.00 0.00 75 994.9
20260503035322 56 292 0.0 0.0 0.00 0.00 0.00 75 994.8
20260503035222 56 330 0.0 0.0 0.00 0.00 0.00 74 994.8
20260503035122 56 338 0.0 0.0 0.00 0.00 0.00 73 994.8
20260503035021 56 323 0.0 0.0 0.00 0.00 0.00 74 994.8
20260503034921 56 301 0.0 0.0 0.00 0.00 0.00 74 994.8
20260503034821 56 292 0.0 0.0 0.00 0.00 0.00 74 994.9
20260503034721 56 292 0.0 0.0 0.00 0.00 0.00 74 994.8
20260503034621 56 292 0.0 0.0 0.00 0.00 0.00 74 994.8
20260503034521 56 292 0.0 0.0 0.00 0.00 0.00 75 994.8
20260503034421 56 288 0.0 0.0 0.00 0.00 0.00 74 994.6
20260503034321 56 270 0.0 0.0 0.00 0.00 0.00 73 994.7
20260503034221 57 270 0.0 1.0 0.00 0.00 0.00 73 994.7
20260503034121 57 270 0.0 1.0 0.00 0.00 0.00 72 994.6
20260503034021 57 277 0.0 1.0 0.00 0.00 0.00 72 994.7
20260503033921 58 292 0.0 0.0 0.00 0.00 0.00 72 994.8
20260503033821 58 323 0.0 0.0 0.00 0.00 0.00 70 994.8
20260503033721 58 338 0.0 0.0 0.00 0.00 0.00 69 994.7
20260503033621 58 338 0.0 0.0 0.00 0.00 0.00 69 994.6
20260503033521 58 338 0.0 0.0 0.00 0.00 0.00 71 994.7
20260503033421 59 338 0.0 0.0 0.00 0.00 0.00 71 994.8
20260503033321 59 77 0.0 0.0 0.00 0.00 0.00 70 994.7
20260503033221 59 132 0.0 0.0 0.00 0.00 0.00 65 994.8
20260503033121 59 135 0.0 0.0 0.00 0.00 0.00 64 994.9
20260503033021 59 119 0.0 0.0 0.00 0.00 0.00 65 994.7
20260503032922 59 127 0.0 0.0 0.00 0.00 0.00 65 994.7
20260503032822 58 150 0.0 1.0 0.00 0.00 0.00 66 994.8
20260503032722 58 135 0.0 1.0 0.00 0.00 0.00 65 994.8
20260503032622 57 148 0.0 1.0 0.00 0.00 0.00 67 994.8
20260503032522 57 142 0.0 1.0 0.00 0.00 0.00 68 994.8
20260503032422 57 258 0.0 1.0 0.00 0.00 0.00 69 994.9
20260503032322 57 315 0.0 0.0 0.00 0.00 0.00 71 994.9
20260503032222 57 315 0.0 0.0 0.00 0.00 0.00 71 994.8
20260503032122 57 315 0.0 0.0 0.00 0.00 0.00 70 994.8
20260503032022 57 315 0.0 0.0 0.00 0.00 0.00 69 994.9
20260503031922 57 315 0.0 0.0 0.00 0.00 0.00 70 994.8
20260503031822 57 315 0.0 0.0 0.00 0.00 0.00 70 994.9
20260503031722 57 315 0.0 0.0 0.00 0.00 0.00 69 994.9
20260503031622 57 315 0.0 0.0 0.00 0.00 0.00 69 995.0
20260503031522 57 315 0.0 0.0 0.00 0.00 0.00 70 995.0
20260503031422 57 315 0.0 0.0 0.00 0.00 0.00 70 994.9
20260503031322 57 315 0.0 0.0 0.00 0.00 0.00 71 995.1
20260503031222 57 315 0.0 0.0 0.00 0.00 0.00 71 995.0
20260503031122 57 315 0.0 0.0 0.00 0.00 0.00 72 994.9
20260503031022 57 315 0.0 0.0 0.00 0.00 0.00 72 995.0
20260503030922 57 315 0.0 0.0 0.00 0.00 0.00 72 995.0
20260503030822 57 315 0.0 0.0 0.00 0.00 0.00 71 995.0
20260503030721 57 315 0.0 0.0 0.00 0.00 0.00 72 994.9
20260503030621 57 315 0.0 0.0 0.00 0.00 0.00 72 995.0
20260503030521 57 315 0.0 0.0 0.00 0.00 0.00 72 995.0
20260503030422 57 315 0.0 0.0 0.00 0.00 0.00 72 995.0
20260503030321 57 315 0.0 0.0 0.00 0.00 0.00 71 995.0
20260503030221 57 315 0.0 0.0 0.00 0.00 0.00 71 995.0
20260503030121 57 315 0.0 0.0 0.00 0.00 0.00 71 995.0
20260503030021 57 315 0.0 0.0 0.00 0.00 0.00 70 994.9
20260503025921 57 303 0.0 0.0 0.00 0.00 0.00 72 994.9
20260503025821 57 282 0.0 0.0 0.00 0.00 0.00 71 994.9
20260503025721 57 270 0.0 0.0 0.00 0.00 0.00 70 994.8
20260503025621 57 270 0.0 0.0 0.00 0.00 0.00 71 994.9
20260503025521 57 270 0.0 0.0 0.00 0.00 0.00 70 995.0
20260503025421 57 270 0.0 0.0 0.00 0.00 0.00 70 995.0
20260503025321 57 270 0.0 0.0 0.00 0.00 0.00 71 995.0
20260503025221 56 270 0.0 0.0 0.00 0.00 0.00 72 994.9
20260503025121 56 270 0.0 0.0 0.00 0.00 0.00 72 995.0
20260503025021 56 270 0.0 0.0 0.00 0.00 0.00 73 995.0
20260503024921 56 270 0.0 0.0 0.00 0.00 0.00 73 994.9
20260503024821 56 270 0.0 0.0 0.00 0.00 0.00 73 994.8
20260503024721 56 270 0.0 0.0 0.00 0.00 0.00 73 994.8
20260503024621 56 270 0.0 0.0 0.00 0.00 0.00 73 994.8
20260503024521 56 270 0.0 0.0 0.00 0.00 0.00 74 994.9
20260503024422 56 270 0.0 0.0 0.00 0.00 0.00 74 994.8
20260503024322 56 270 0.0 0.0 0.00 0.00 0.00 74 994.9
20260503024222 56 270 0.0 0.0 0.00 0.00 0.00 74 995.0
20260503024122 56 270 0.0 0.0 0.00 0.00 0.00 74 995.0
20260503024022 56 270 0.0 0.0 0.00 0.00 0.00 74 994.9
20260503023922 56 270 0.0 3.0 0.00 0.00 0.00 74 994.9
20260503023822 56 264 1.0 3.0 0.00 0.00 0.00 74 995.0
20260503023722 56 284 0.0 3.0 0.00 0.00 0.00 72 994.9
20260503023622 56 292 0.0 0.0 0.00 0.00 0.00 73 994.9
20260503023522 56 292 0.0 0.0 0.00 0.00 0.00 73 994.9
20260503023422 56 292 0.0 0.0 0.00 0.00 0.00 73 995.0
20260503023322 56 292 0.0 0.0 0.00 0.00 0.00 73 995.0
20260503023222 56 292 0.0 0.0 0.00 0.00 0.00 73 995.0
20260503023122 56 292 0.0 0.0 0.00 0.00 0.00 73 994.9
20260503023022 56 292 0.0 0.0 0.00 0.00 0.00 73 994.9
20260503022922 56 292 0.0 0.0 0.00 0.00 0.00 73 994.8
20260503022822 56 292 0.0 0.0 0.00 0.00 0.00 72 995.0
20260503022722 56 292 0.0 0.0 0.00 0.00 0.00 72 994.9
20260503022622 56 281 0.0 0.0 0.00 0.00 0.00 72 995.0
20260503022522 56 270 0.0 0.0 0.00 0.00 0.00 71 995.0
20260503022422 56 270 0.0 0.0 0.00 0.00 0.00 72 994.9
20260503022322 56 270 0.0 0.0 0.00 0.00 0.00 72 994.9
20260503022222 56 270 0.0 0.0 0.00 0.00 0.00 72 994.9
20260503022122 56 270 0.0 0.0 0.00 0.00 0.00 73 995.0
20260503022021 56 270 0.0 0.0 0.00 0.00 0.00 73 995.0
20260503021921 56 270 0.0 0.0 0.00 0.00 0.00 73 995.2
20260503021821 56 270 0.0 0.0 0.00 0.00 0.00 72 995.2
20260503021721 57 270 0.0 1.0 0.00 0.00 0.00 72 995.1
20260503021621 57 270 0.0 1.0 0.00 0.00 0.00 73 995.1
20260503021521 57 251 0.0 0.0 0.00 0.00 0.00 72 995.1
20260503021421 57 202 0.0 0.0 0.00 0.00 0.00 70 995.1
20260503021321 57 199 0.0 0.0 0.00 0.00 0.00 70 995.0
20260503021221 56 188 0.0 0.0 0.00 0.00 0.00 69 995.0
20260503021121 56 225 0.0 0.0 0.00 0.00 0.00 70 994.9
20260503021021 56 292 0.0 0.0 0.00 0.00 0.00 72 995.0
20260503020921 56 292 0.0 0.0 0.00 0.00 0.00 73 995.1
20260503020821 56 300 0.0 0.0 0.00 0.00 0.00 72 994.9
20260503020721 56 322 0.0 0.0 0.00 0.00 0.00 72 995.0
20260503020621 56 338 0.0 0.0 0.00 0.00 0.00 71 995.1
20260503020521 56 338 0.0 0.0 0.00 0.00 0.00 72 995.0
20260503020421 56 338 0.0 0.0 0.00 0.00 0.00 72 995.0
20260503020321 56 338 0.0 0.0 0.00 0.00 0.00 72 995.1
20260503020221 56 338 0.0 0.0 0.00 0.00 0.00 72 995.1
20260503020121 57 355 0.0 0.0 0.00 0.00 0.00 72 995.2
20260503020023 57 0 0.0 0.0 0.00 0.00 0.00 72 995.2
20260503015922 57 0 0.0 0.0 0.00 0.00 0.00 72 995.0
20260503015822 57 0 0.0 0.0 0.00 0.00 0.00 72 995.0
20260503015722 57 0 0.0 0.0 0.00 0.00 0.00 72 995.1
20260503015622 57 0 0.0 0.0 0.00 0.00 0.00 71 995.2
20260503015522 57 0 0.0 0.0 0.00 0.00 0.00 72 995.1
20260503015422 57 0 0.0 0.0 0.00 0.00 0.00 72 995.1
20260503015322 57 47 0.0 0.0 0.00 0.00 0.00 71 995.0
20260503015222 57 139 0.0 0.0 0.00 0.00 0.00 70 995.0
20260503015122 57 269 0.0 0.0 0.00 0.00 0.00 71 995.0
20260503015022 57 270 0.0 0.0 0.00 0.00 0.00 70 995.0
20260503014922 57 270 0.0 0.0 0.00 0.00 0.00 70 995.1
20260503014822 57 270 0.0 0.0 0.00 0.00 0.00 71 995.1
20260503014722 57 270 0.0 0.0 0.00 0.00 0.00 71 995.0
20260503014622 57 270 0.0 0.0 0.00 0.00 0.00 70 995.1
20260503014522 57 307 0.0 0.0 0.00 0.00 0.00 70 995.2
20260503014422 57 315 0.0 0.0 0.00 0.00 0.00 69 995.1
20260503014322 57 315 0.0 0.0 0.00 0.00 0.00 68 995.1
20260503014222 57 315 0.0 0.0 0.00 0.00 0.00 69 995.1
20260503014122 57 315 0.0 0.0 0.00 0.00 0.00 69 995.1
20260503014022 57 315 0.0 0.0 0.00 0.00 0.00 70 995.2
20260503013922 57 315 0.0 0.0 0.00 0.00 0.00 70 995.2
20260503013821 57 315 0.0 0.0 0.00 0.00 0.00 70 995.2
20260503013721 57 315 0.0 1.0 0.00 0.00 0.00 71 995.2
20260503013621 57 319 0.0 1.0 0.00 0.00 0.00 71 995.3
20260503013521 57 338 0.0 1.0 0.00 0.00 0.00 71 995.2
20260503013421 58 209 0.0 0.0 0.00 0.00 0.00 71 995.2
20260503013321 58 180 0.0 0.0 0.00 0.00 0.00 71 995.0
20260503013221 58 180 0.0 0.0 0.00 0.00 0.00 70 995.1
20260503013121 58 180 0.0 0.0 0.00 0.00 0.00 70 995.1
20260503013021 58 180 0.0 0.0 0.00 0.00 0.00 70 995.1
20260503012921 58 180 0.0 0.0 0.00 0.00 0.00 69 995.3
20260503012821 58 183 0.0 0.0 0.00 0.00 0.00 69 995.1
20260503012721 58 219 0.0 0.0 0.00 0.00 0.00 69 995.1
20260503012621 58 248 0.0 0.0 0.00 0.00 0.00 70 995.1
20260503012521 58 248 0.0 1.0 0.00 0.00 0.00 69 995.2
20260503012421 58 257 0.0 1.0 0.00 0.00 0.00 68 995.2
20260503012321 58 187 0.0 1.0 0.00 0.00 0.00 67 995.1
20260503012221 58 135 1.0 1.0 0.00 0.00 0.00 68 995.1
20260503012121 58 155 1.0 1.0 0.00 0.00 0.00 68 995.0
20260503012021 58 141 1.0 2.0 0.00 0.00 0.00 68 995.0
20260503011923 57 158 1.0 2.0 0.00 0.00 0.00 69 995.1
20260503011822 57 141 0.0 1.0 0.00 0.00 0.00 71 995.1
20260503011722 56 154 1.0 1.0 0.00 0.00 0.00 72 995.1
20260503011622 56 149 0.0 1.0 0.00 0.00 0.00 73 995.2
20260503011522 56 270 0.0 0.0 0.00 0.00 0.00 74 995.1
20260503011422 56 270 0.0 0.0 0.00 0.00 0.00 74 995.2
20260503011322 56 270 0.0 0.0 0.00 0.00 0.00 74 995.1
20260503011222 56 270 0.0 1.0 0.00 0.00 0.00 74 995.2
20260503011122 56 270 0.0 1.0 0.00 0.00 0.00 74 995.3
20260503011022 57 270 0.0 2.0 0.00 0.00 0.00 72 995.3
20260503010922 57 270 1.0 2.0 0.00 0.00 0.00 72 995.1
20260503010822 57 240 0.0 2.0 0.00 0.00 0.00 70 995.3
20260503010722 57 180 0.0 0.0 0.00 0.00 0.00 70 995.2
20260503010622 57 180 0.0 0.0 0.00 0.00 0.00 70 995.2
20260503010522 57 180 0.0 0.0 0.00 0.00 0.00 70 995.3
20260503010422 57 209 0.0 0.0 0.00 0.00 0.00 70 995.2
20260503010322 57 270 0.0 0.0 0.00 0.00 0.00 70 995.1
20260503010222 57 270 0.0 1.0 0.00 0.00 0.00 70 995.1
20260503010121 58 270 1.0 1.0 0.00 0.00 0.00 70 995.3
20260503010021 58 264 0.0 1.0 0.00 0.00 0.00 69 995.2
20260503005921 58 206 0.0 1.0 0.00 0.00 0.00 67 995.3
20260503005821 57 147 0.0 1.0 0.00 0.00 0.00 66 995.3
20260503005721 57 158 1.0 1.0 0.00 0.00 0.00 66 995.2
20260503005621 57 122 0.0 1.0 0.00 0.00 0.00 67 995.2
20260503005521 57 12 0.0 0.0 0.00 0.00 0.00 67 995.4
20260503005421 57 0 0.0 0.0 0.00 0.00 0.00 69 995.4
20260503005321 57 0 0.0 0.0 0.00 0.00 0.00 70 995.3
20260503005221 57 0 0.0 0.0 0.00 0.00 0.00 70 995.4
20260503005121 57 0 0.0 0.0 0.00 0.00 0.00 70 995.4
20260503005021 57 0 0.0 0.0 0.00 0.00 0.00 70 995.4
20260503004921 57 0 0.0 0.0 0.00 0.00 0.00 70 995.3
20260503004821 57 0 0.0 0.0 0.00 0.00 0.00 70 995.3
20260503004721 57 10 0.0 0.0 0.00 0.00 0.00 70 995.5
20260503004621 57 22 0.0 0.0 0.00 0.00 0.00 69 995.3
20260503004521 57 22 0.0 0.0 0.00 0.00 0.00 69 995.4
20260503004421 57 22 0.0 0.0 0.00 0.00 0.00 70 995.4
20260503004321 57 22 0.0 0.0 0.00 0.00 0.00 69 995.4
20260503004223 58 22 0.0 0.0 0.00 0.00 0.00 69 995.5
20260503004123 58 22 0.0 0.0 0.00 0.00 0.00 70 995.4
20260503004023 57 22 0.0 0.0 0.00 0.00 0.00 68 995.5
20260503003923 57 22 0.0 0.0 0.00 0.00 0.00 67 995.4
20260503003823 57 22 0.0 0.0 0.00 0.00 0.00 69 995.4
20260503003722 57 22 0.0 0.0 0.00 0.00 0.00 69 995.4
20260503003622 57 22 0.0 1.0 0.00 0.00 0.00 69 995.4
20260503003522 58 22 0.0 1.0 0.00 0.00 0.00 70 995.4
20260503003422 58 40 0.0 1.0 0.00 0.00 0.00 70 995.4
20260503003322 58 45 0.0 0.0 0.00 0.00 0.00 69 995.5
20260503003222 58 45 0.0 0.0 0.00 0.00 0.00 69 995.5
20260503003122 58 45 0.0 0.0 0.00 0.00 0.00 70 995.5
20260503003022 58 45 0.0 0.0 0.00 0.00 0.00 70 995.5
20260503002922 58 45 0.0 0.0 0.00 0.00 0.00 70 995.4
20260503002822 58 45 0.0 0.0 0.00 0.00 0.00 70 995.5
20260503002722 58 45 0.0 0.0 0.00 0.00 0.00 70 995.5
20260503002622 58 45 0.0 0.0 0.00 0.00 0.00 69 995.6
20260503002522 58 45 0.0 0.0 0.00 0.00 0.00 69 995.6
20260503002422 58 45 0.0 0.0 0.00 0.00 0.00 68 995.5
20260503002322 57 34 0.0 0.0 0.00 0.00 0.00 68 995.4
20260503002222 57 22 0.0 0.0 0.00 0.00 0.00 69 995.6